Showing default

CHECKMATE 4, 56164

Orbit data source: Space-Track

CHECKMATE 4, 56164 is a payload satellite owned by SDA (US) in LEO that was launched on Sun, 02 Apr 2023 UTC via an FALCON 9 launch vehicle from the Air Force Western Test Range (AFWTR). Payload-class satellites include a variety of spacecraft equipped with specific instruments for various scientific and technological missions. These include communications satellites like Starlink; space stations such as the ISS; scientific satellites like the Hubble; Earth observation satellites from companies like Planet Labs, Umbra, and HawkEye 360; GPS; miniature CubeSats for education and research; and military/defense satellites.

Loading next visibility...
Identifier
56164, 2023-050C
Orbit
LEO
Country
Flag of USUS
Related business
Manufacturer
York Space Sys
Mission
Operational Defense Communications
Bus & Motor
S-CLASS, Unknown motor
Mass
~300 kg wet, ~300 kg dry
Launch date (UTC)
2023-04-02 (3 years ago)
Launch vehicle
FALCON 9
Launch site
Air Force Western Test Range (AFWTR)
Object type
Payload
Rocket body
Debris
Shape & HBR
Box + 1 Pan, 1.0 m
Radar Cross Section
0.945 m², Large (>1 m²)

Expand to show TLE details & history
Last TLE update: 2 days ago

TLE from 2 days ago
0 CHECKMATE 4
1 56164U 23050C   26171.18411976  .00000093  00000-0  72526-4 0  9994
2 56164  81.0016  68.9655 0005528 337.4683  22.6230 13.84815746162554
Epoch: 2026-06-20T04:25Z
TLE epoch observation values (Epoch: 2026-06-20T04:25:07.947Z)
Latitude
0.00004°
Longitude
94.28001°
Altitude
945.974 km
Speed
7.381 km/s
True Right ascension
04h 35m 51s
True Declination
0° 00' 00"
Sunlit
Object was in daylight at epoch
Visualization orbit readout
Latitude
Unknown
Longitude
Unknown
Altitude
Unknown
Speed
Unknown
Apparent Right ascension
Unknown
Apparent Declination
Unknown
Sunlit
N/A
Visualization observer readout
Local Sidereal Time
21:42:54
Azimuth
Unknown
Elevation
Unknown
Doppler factor
Unknown
Orbital elements
Apogee altitude
948.123 km
Perigee altitude
940.027 km
Semi-major axis
7,322.212 km
Eccentricity
0.00055
Inclination
81.0016°
RAAN
68.9655°
Arg. of periapsis
337.4683°
True anomaly
22.64738°
Mean anomaly
22.623°
Eccentric anomaly
22.63519°
Mean motion
3.46401 °/min
Orbital period
103.93 mins
BSTAR
0.000072526
Loading maneuver chart data...
Computing Atmospheric mass density...
Loading historical data...
Loading historical data...
Loading historical data...
Loading historical data...
Loading historical data...
Loading historical data...
Loading historical data...

Documentation

Showing up to 5 results
|